| time (UTC) | temp F | wind direction | speed knots | gust knots | rain 1hr in | rain 24hr in | rain mn in | humidity % | barometer mb |
| 20260507143059 | 57 | 235 | 2.6 | 6.1 | 0.00 | 0.00 | 0.00 | 58 | 1020.3 |
| 20260507141547 | 57 | 187 | 1.7 | 4.3 | 0.00 | 0.00 | 0.00 | 59 | 1020.4 |
| 20260507140042 | 55 | 201 | 0.9 | 4.3 | 0.00 | 0.00 | 0.00 | 66 | 1020.6 |
| 20260507134540 | 54 | 131 | 1.7 | 5.2 | 0.00 | 0.00 | 0.00 | 67 | 1020.6 |
| 20260507133044 | 53 | 203 | 0.9 | 2.6 | 0.00 | 0.00 | 0.00 | 73 | 1020.6 |
| 20260507131548 | 51 | 0 | 0.0 | 2.6 | 0.00 | 0.00 | 0.00 | 78 | 1020.7 |
| 20260507130058 | 49 | 129 | 0.0 | 1.7 | 0.00 | 0.00 | 0.00 | 83 | 1020.6 |
| 20260507124551 | 46 | 0 | 0.0 | 1.7 | 0.00 | 0.00 | 0.00 | 90 | 1020.4 |
| 20260507123040 | 43 | 0 | 0.0 | 0.9 | 0.00 | 0.00 | 0.00 | 93 | 1020.3 |
| 20260507121554 | 41 | 0 | 0.0 | 0.0 | 0.00 | 0.00 | 0.00 | 95 | 1020.3 |
| 20260507120251 | 39 | 0 | 0.0 | 0.0 | 0.00 | 0.00 | 0.00 | 94 | 1020.1 |
| 20260507114544 | 39 | 0 | 0.0 | 0.0 | 0.00 | 0.00 | 0.00 | 93 | 1020.1 |
| 20260507113047 | 40 | 0 | 0.0 | 0.0 | 0.00 | 0.00 | 0.00 | 93 | 1020.0 |
| 20260507111542 | 40 | 0 | 0.0 | 0.0 | 0.00 | 0.00 | 0.00 | 93 | 1020.0 |
| 20260507110057 | 41 | 0 | 0.0 | 0.0 | 0.00 | 0.00 | 0.00 | 93 | 1019.9 |
| 20260507104552 | 42 | 0 | 0.0 | 0.0 | 0.00 | 0.00 | 0.00 | 94 | 1019.8 |
| 20260507103112 | 41 | 0 | 0.0 | 0.0 | 0.00 | 0.00 | 0.00 | 94 | 1019.8 |
| 20260507101544 | 41 | 0 | 0.0 | 0.0 | 0.00 | 0.00 | 0.00 | 94 | 1019.7 |
| 20260507100055 | 41 | 0 | 0.0 | 0.0 | 0.00 | 0.00 | 0.00 | 94 | 1019.8 |
| 20260507094550 | 41 | 0 | 0.0 | 0.0 | 0.00 | 0.00 | 0.00 | 94 | 1019.8 |
| 20260507093115 | 41 | 0 | 0.0 | 0.0 | 0.00 | 0.00 | 0.00 | 94 | 1019.7 |
| 20260507091550 | 40 | 0 | 0.0 | 0.0 | 0.00 | 0.00 | 0.00 | 94 | 1019.9 |
| 20260507090053 | 39 | 0 | 0.0 | 0.0 | 0.00 | 0.00 | 0.00 | 94 | 1019.8 |
| 20260507084549 | 38 | 0 | 0.0 | 0.0 | 0.00 | 0.01 | 0.00 | 93 | 1019.8 |
| 20260507083047 | 38 | 0 | 0.0 | 0.0 | 0.00 | 0.01 | 0.00 | 93 | 1019.8 |
| 20260507081547 | 38 | 0 | 0.0 | 0.0 | 0.00 | 0.01 | 0.00 | 92 | 1019.9 |
| 20260507080054 | 38 | 0 | 0.0 | 0.0 | 0.00 | 0.01 | 0.00 | 93 | 1019.9 |
| 20260507074543 | 38 | 0 | 0.0 | 0.0 | 0.00 | 0.01 | 0.00 | 92 | 1019.7 |
| 20260507073051 | 38 | 0 | 0.0 | 0.0 | 0.00 | 0.01 | 0.00 | 92 | 1019.9 |
| 20260507071548 | 39 | 0 | 0.0 | 0.0 | 0.00 | 0.01 | 0.00 | 92 | 1020.0 |
| 20260507064550 | 38 | 0 | 0.0 | 0.0 | 0.00 | 0.01 | 0.00 | 91 | 1020.2 |
| 20260507063043 | 39 | 0 | 0.0 | 0.0 | 0.00 | 0.01 | 0.00 | 90 | 1020.3 |
| 20260507061547 | 39 | 0 | 0.0 | 0.0 | 0.00 | 0.01 | 0.00 | 90 | 1020.3 |
| 20260507060038 | 40 | 0 | 0.0 | 0.0 | 0.00 | 0.01 | 0.00 | 90 | 1020.4 |
| 20260507054602 | 40 | 0 | 0.0 | 0.0 | 0.00 | 0.01 | 0.00 | 89 | 1020.2 |
| 20260507053102 | 41 | 0 | 0.0 | 0.0 | 0.00 | 0.01 | 0.00 | 89 | 1020.3 |
| 20260507051555 | 41 | 0 | 0.0 | 0.0 | 0.00 | 0.01 | 0.00 | 87 | 1020.3 |
| 20260507050055 | 41 | 0 | 0.0 | 0.0 | 0.00 | 0.01 | 0.00 | 86 | 1020.4 |
| 20260507044556 | 42 | 0 | 0.0 | 0.0 | 0.00 | 0.01 | 0.01 | 85 | 1020.5 |
| 20260507043047 | 43 | 0 | 0.0 | 0.0 | 0.00 | 0.01 | 0.01 | 85 | 1020.3 |
| 20260507041601 | 43 | 0 | 0.0 | 0.0 | 0.00 | 0.01 | 0.01 | 85 | 1020.2 |
| 20260507040054 | 44 | 0 | 0.0 | 0.0 | 0.00 | 0.01 | 0.01 | 84 | 1020.2 |
| 20260507034549 | 44 | 0 | 0.0 | 0.0 | 0.00 | 0.01 | 0.01 | 83 | 1020.2 |
| 20260507033048 | 45 | 0 | 0.0 | 0.0 | 0.00 | 0.01 | 0.01 | 82 | 1020.1 |
| 20260507031545 | 45 | 0 | 0.0 | 0.0 | 0.00 | 0.01 | 0.01 | 81 | 1020.1 |
| 20260507030048 | 46 | 0 | 0.0 | 0.0 | 0.00 | 0.01 | 0.01 | 80 | 1020.1 |
| 20260507024546 | 47 | 0 | 0.0 | 0.0 | 0.00 | 0.01 | 0.01 | 78 | 1020.1 |
| 20260507023040 | 48 | 0 | 0.0 | 0.0 | 0.00 | 0.01 | 0.01 | 74 | 1019.9 |
| 20260507021539 | 49 | 0 | 0.0 | 0.0 | 0.00 | 0.01 | 0.01 | 71 | 1019.6 |
| 20260507020045 | 50 | 0 | 0.0 | 0.0 | 0.00 | 0.01 | 0.01 | 68 | 1019.3 |
| 20260507014606 | 52 | 0 | 0.0 | 0.9 | 0.00 | 0.01 | 0.01 | 63 | 1019.3 |
| 20260507013047 | 53 | 0 | 0.9 | 2.6 | 0.00 | 0.01 | 0.01 | 60 | 1019.2 |
| 20260507011554 | 55 | 0 | 0.0 | 2.6 | 0.00 | 0.01 | 0.01 | 58 | 1018.9 |
| 20260507010044 | 56 | 0 | 0.9 | 2.6 | 0.00 | 0.01 | 0.01 | 56 | 1018.9 |
| 20260507004549 | 58 | 0 | 0.0 | 0.9 | 0.00 | 0.02 | 0.01 | 57 | 1018.7 |
| 20260507003046 | 59 | 0 | 0.0 | 1.7 | 0.00 | 0.02 | 0.01 | 55 | 1018.6 |
| 20260507001558 | 58 | 39 | 0.0 | 5.2 | 0.00 | 0.02 | 0.01 | 54 | 1018.4 |
| 20260507000057 | 59 | 15 | 3.5 | 7.0 | 0.00 | 0.02 | 0.01 | 51 | 1018.0 |
| 20260506234604 | 60 | 30 | 2.6 | 6.1 | 0.00 | 0.04 | 0.01 | 50 | 1017.9 |
| 20260506233044 | 60 | 39 | 2.6 | 9.6 | 0.00 | 0.04 | 0.01 | 50 | 1017.7 |
| 20260506231548 | 61 | 31 | 4.3 | 9.6 | 0.00 | 0.04 | 0.01 | 51 | 1017.7 |
| 20260506230100 | 60 | 39 | 5.2 | 12.2 | 0.00 | 0.04 | 0.01 | 50 | 1017.4 |
| 20260506224549 | 61 | 26 | 4.3 | 12.2 | 0.00 | 0.04 | 0.01 | 53 | 1017.7 |
| 20260506223039 | 61 | 35 | 3.5 | 10.4 | 0.00 | 0.04 | 0.01 | 50 | 1017.6 |
| 20260506221555 | 61 | 29 | 2.6 | 9.6 | 0.00 | 0.04 | 0.01 | 51 | 1017.6 |
| 20260506220048 | 61 | 123 | 2.6 | 8.7 | 0.00 | 0.04 | 0.01 | 51 | 1017.8 |
| 20260506214547 | 61 | 44 | 3.5 | 7.8 | 0.00 | 0.04 | 0.01 | 49 | 1017.8 |
| 20260506213050 | 61 | 94 | 2.6 | 8.7 | 0.00 | 0.04 | 0.01 | 49 | 1017.8 |
| 20260506211552 | 62 | 30 | 4.3 | 11.3 | 0.00 | 0.04 | 0.01 | 52 | 1018.0 |
| 20260506210047 | 62 | 34 | 2.6 | 9.6 | 0.00 | 0.04 | 0.01 | 51 | 1017.7 |
| 20260506204539 | 62 | 27 | 1.7 | 7.8 | 0.00 | 0.04 | 0.01 | 52 | 1017.9 |
| 20260506203049 | 60 | 345 | 5.2 | 9.6 | 0.00 | 0.04 | 0.01 | 50 | 1018.2 |
| 20260506201547 | 61 | 101 | 1.7 | 7.0 | 0.00 | 0.04 | 0.01 | 54 | 1018.2 |
| 20260506200045 | 60 | 32 | 4.3 | 10.4 | 0.00 | 0.04 | 0.01 | 52 | 1018.4 |
| 20260506194546 | 61 | 16 | 3.5 | 10.4 | 0.00 | 0.04 | 0.01 | 52 | 1018.6 |
| 20260506193048 | 59 | 37 | 3.5 | 11.3 | 0.00 | 0.04 | 0.01 | 53 | 1018.8 |
| 20260506191553 | 60 | 39 | 1.7 | 11.3 | 0.00 | 0.04 | 0.01 | 54 | 1019.0 |
| 20260506190050 | 59 | 98 | 2.6 | 11.3 | 0.00 | 0.04 | 0.01 | 56 | 1019.1 |
| 20260506184543 | 59 | 17 | 3.5 | 7.8 | 0.00 | 0.05 | 0.01 | 57 | 1019.3 |
| 20260506183051 | 60 | 93 | 1.7 | 8.7 | 0.00 | 0.05 | 0.01 | 61 | 1019.5 |
| 20260506181601 | 59 | 65 | 1.7 | 8.7 | 0.00 | 0.05 | 0.01 | 56 | 1019.8 |
| 20260506180047 | 59 | 80 | 2.6 | 6.1 | 0.00 | 0.05 | 0.01 | 56 | 1020.2 |
| 20260506174543 | 59 | 32 | 2.6 | 9.6 | 0.00 | 0.05 | 0.01 | 53 | 1020.2 |
| 20260506173104 | 58 | 27 | 4.3 | 10.4 | 0.00 | 0.05 | 0.01 | 55 | 1020.0 |
| 20260506171547 | 58 | 44 | 1.7 | 11.3 | 0.00 | 0.05 | 0.01 | 55 | 1020.2 |
| 20260506170051 | 57 | 89 | 1.7 | 7.0 | 0.00 | 0.05 | 0.01 | 57 | 1020.3 |
| 20260506164543 | 57 | 37 | 2.6 | 8.7 | 0.00 | 0.05 | 0.01 | 57 | 1020.2 |
| 20260506163055 | 56 | 49 | 1.7 | 8.7 | 0.00 | 0.05 | 0.01 | 60 | 1019.8 |
| 20260506161541 | 56 | 338 | 1.7 | 6.1 | 0.00 | 0.05 | 0.01 | 62 | 1019.2 |
| 20260506160050 | 55 | 78 | 1.7 | 7.0 | 0.00 | 0.05 | 0.01 | 60 | 1018.9 |
| 20260506154600 | 55 | 31 | 1.7 | 7.8 | 0.00 | 0.05 | 0.01 | 60 | 1019.0 |
| 20260506153046 | 55 | 98 | 1.7 | 7.8 | 0.00 | 0.05 | 0.01 | 67 | 1019.1 |
| 20260506151544 | 53 | 141 | 1.7 | 7.0 | 0.00 | 0.05 | 0.01 | 66 | 1019.2 |
| 20260506150041 | 53 | 123 | 1.7 | 10.4 | 0.00 | 0.05 | 0.01 | 72 | 1018.9 |
| 20260506144553 | 52 | 93 | 2.6 | 9.6 | 0.00 | 0.06 | 0.01 | 74 | 1018.7 |